Regional Weather Roundup
Issued by NWS

Home | Current Version | Previous Version | Text Only | Print | Product List | Glossary Off
Versions: 1 2 3 4 5 6 7 8 9 10 11 12 13 14 15 16 17 18 19 20 21 22 23 24 25 26 27 28 29 30 31 32 33 34 35 36 37 38 39 40 41 42 43 44 45 46 47 48 49 50

000
ASUS43 KBIS 021902
RWRND

NORTH DAKOTA REGIONAL WEATHER ROUNDUP
NATIONAL WEATHER SERVICE BISMARCK ND
200 PM CDT TUE JUN 02 2015

NOTE: "FAIR" INDICATES FEW OR NO CLOUDS BELOW 12,000 FEET WITH NO
SIGNIFICANT WEATHER AND/OR OBSTRUCTIONS TO VISIBILITY.


NDZ001>003-009>011-017-022000-
NORTHWEST NORTH DAKOTA

CITY           SKY/WX    TMP DP  RH WIND       PRES   REMARKS
WILLISTON      RAIN      59  56  89 NE16G24   29.77F FOG
MINOT          CLOUDY    63  60  90 NE14      29.80S
MINOT AFB      CLOUDY    63  63 100 NE12      29.80S
$$

NDZ018>021-031>035-040>046-022000-
SOUTHWEST NORTH DAKOTA

CITY           SKY/WX    TMP DP  RH WIND       PRES   REMARKS
BISMARCK       CLOUDY    74  64  71 N7        29.74F
DICKINSON      PTSUNNY   75  58  55 W5        29.75F
GARRISON         N/A     70  62  76 E6        29.77F
HETTINGER ARPT MOSUNNY   76  57  51 W10G24    29.79S
$$

NDZ004>008-012>016-024-026-027-054-022000-
NORTHEAST NORTH DAKOTA

CITY           SKY/WX    TMP DP  RH WIND       PRES   REMARKS
GRAND FORKS    CLOUDY    66  58  75 S9        29.81S
GRND FRKS AFB  CLOUDY    66  58  76 SE5       29.81F
DEVILS LAKE    CLOUDY    66  61  82 NE10      29.79F
$$

NDZ022-023-025-028>030-036>039-047>053-022000-
SOUTHEAST NORTH DAKOTA

CITY           SKY/WX    TMP DP  RH WIND       PRES   REMARKS
FARGO          CLOUDY    71  58  63 S23G31    29.80R
JAMESTOWN      CLOUDY    73  63  70 S12G18    29.76F
$$



USA.gov is the U.S. government's official web portal to all federal, state and local government web resources and services.